Location: Bergnerzell
(49.1816°N, 10.2565°E)
Time: 21:02:34
(UTC+00:00)

Aureole 3 - Pass Details

Date: 23 May 2024
Orbit: 378 x 1127 km, 82.5° (Epoch: 14 June)

Event Time Altitude Azimuth Distance (km) Brightness Sun altitude
Exits shadow 01:10:13 18° 273° (W) 1,040 4.5 -15.7°
Maximum altitude 01:10:48 18° 290° (WNW) 1,007 4.6 -15.6°
Drops below altitude 10° 01:13:00 10° 337° (NNW) 1,419 6.0 -15.5°
Sets 01:15:27 0° 357° (N) 2,323 7.6 -15.3°
